Regional Weather Roundup
Issued by NWS Kansas City/Pleasant Hill, MO

Home | Current Version | Previous Version | Graphics & Text | Print | Product List | Glossary Off
Versions: 1 2 3 4 5 6 7 8 9 10 11 12 13 14 15 16 17 18 19 20 21 22 23 24 25 26 27 28 29 30 31 32 33 34 35 36 37 38 39 40 41 42 43 44 45 46 47 48 49 50

000
ASUS43 KEAX 270004
RWREAX

WEATHER ROUNDUP FOR EASTERN KANSAS AND NORTHWEST MISSOURI
NATIONAL WEATHER SERVICE KANSAS CITY/PLEASANT HILL MO
600 PM CST THU FEB 26 2015

KSZ040-057-103>105-MOZ028-029-037-043-270100-
...KANSAS CITY METROPOLITAN AREA...

CITY           SKY/WX    TMP DP  RH WIND       PRES   REMARKS
K.C. INTL      PTCLDY    14  -1  51 N15       30.46R WCI  -1
6HR MIN TEMP:  14; 6HR MAX TEMP:  20;

K.C. DOWNTOWN  CLEAR     18  -1  43 N12       30.49R WCI   5
6HR MIN TEMP:  18; 6HR MAX TEMP:  23;

LEES SUMMIT    FAIR      17   0  47 N16       30.46R WCI   2
6HR MIN TEMP:  17; 6HR MAX TEMP:  22;

OLATHE - IXD   CLEAR     16   0  49 N17       30.46R WCI   0
6HR MIN TEMP:  16; 6HR MAX TEMP:  21;

OLATHE - OJC   CLEAR     18  -1  43 N13       30.44R WCI   5
6HR MIN TEMP:  18; 6HR MAX TEMP:  22;

LAWRENCE       CLEAR     17  -1  45 N16       30.49R WCI   2

$$

MOZ001>008-011>017-020>025-030>033-038>040-044>046-053-054-270100-
...NORTHERN AND CENTRAL MISSOURI...

CITY           SKY/WX    TMP DP  RH WIND       PRES   REMARKS
ST. JOSEPH     CLEAR     13  -3  49 N17       30.52R WCI  -4
6HR MIN TEMP:  13; 6HR MAX TEMP:  19;

MOSBY            N/A     18   1  49 N15G21    30.49R WCI   3
WARRENSBURG    PTCLDY    18   3  53 N10       30.46R WCI   6
WHITEMAN AFB   NOT AVBL
CLINTON        CLEAR     21   5  49 N15       30.45R WCI   8
SEDALIA        CLEAR     17   3  54 N14       30.46R WCI   3
6HR MIN TEMP:  17; 6HR MAX TEMP:  23;

WARSAW         NOT AVBL
MARSHALL       CLEAR     19   3  49 N15G22    30.45S WCI   5
CHILLICOTHE      N/A     13  -1  54 N7        30.50R WCI   3
6HR MIN TEMP:  13; 6HR MAX TEMP:  18;

MOBERLY        CLEAR     16   0  48 NW13      30.45R WCI   2
KIRKSVILLE     CLEAR     10  -2  58 N9        30.45R WCI  -3
6HR MIN TEMP:  10; 6HR MAX TEMP:  17;


$$

MOZ041-047>049-056>058-063>065-088>090-097-270100-
...EASTERN AND SOUTHERN MISSOURI...

CITY           SKY/WX    TMP DP  RH WIND       PRES   REMARKS
ST. LOUIS INTL MOCLDY    20   8  60 NW14      30.39R WCI   7
6HR MIN TEMP:  20; 6HR MAX TEMP:  24; 6HR PCP: TRACE;

SPIRIT OF STL  MOCLDY    20   6  55 NW13      30.40R WCI   7
COLUMBIA       PTCLDY    18   3  52 NW14      30.41R WCI   4
JEFFERSON CITY CLEAR     21   2  43 NW9       30.43R WCI  11
MEXICO         CLEAR     16   5  62 N14       30.42R WCI   1
HANNIBAL       CLEAR     12  -4  48 N13       30.44R WCI  -3
ROLLA          CLOUDY    19   6  57 N10       30.35R WCI   7
OSAGE BEACH    CLEAR     19   1  45 NW10      30.40R WCI   8
SPRINGFIELD    CLEAR     22   2  42 N13       30.35R WCI  10
BRANSON        CLEAR     25   7  46 NW10      30.34R WCI  15
NEVADA         CLEAR     21   1  42 CALM      30.45R
JOPLIN         CLEAR     23   2  40 N13       30.41R WCI  11
WEST PLAINS    MOCLDY    21   9  59 N8        30.34R WCI  11

$$

IAZ060-094-KSZ022-034>040-054-083-096-NEZ052-066-093-270100-
...KANSAS...SOUTHEAST NEBRASKA AND IOWA...

CITY           SKY/WX    TMP DP  RH WIND       PRES   REMARKS
TOPEKA         CLEAR     18   0  45 N9        30.50R WCI   7
6HR MIN TEMP:  18; 6HR MAX TEMP:  22;

MANHATTAN      CLEAR     18  -1  43 N8        30.49R WCI   8
EMPORIA        CLEAR     19  -1  41 N12       30.45R WCI   7
CHANUTE        CLEAR     22   2  42 N12       30.45R WCI  10
WICHITA        PTCLDY    22  -5  30 NE14      30.44R WCI   9
OMAHA          MOCLDY     9   2  73 N12       30.53S WCI  -6
LINCOLN        CLEAR     12  -1  56 N15       30.52S WCI  -4
FALLS CITY     PTCLDY    12  -2  53 N15       30.51R WCI  -4
LAMONI         CLOUDY     7  -3  64 N10       30.47R WCI  -8
DES MOINES     PTCLDY     7  -6  55 NW14      30.50R WCI -10

$$



USA.gov is the U.S. government's official web portal to all federal, state and local government web resources and services.